Terminal Aerodrome Forecast
Issued by NWS

Home | Current Version | Previous Version | Text Only | Print | Product List | Glossary On
Versions: 1 2 3 4 5 6 7 8 9 10 11 12 13 14 15 16 17 18 19 20 21 22 23 24
000
FTUS43 KILX 201100 CCA
TAFCMI
TAF COR
KCMI 201142Z 2012/2112 27003KT 1/4SM FG OVC002
      TEMPO 2012/2014 3SM BR SCT002
     FM201400 26010KT P6SM SCT035 BKN250
     FM210000 18006KT P6SM SCT120
     FM210900 21006KT P6SM VCTS BKN060CB=

USA.gov is the U.S. government's official web portal to all federal, state and local government web resources and services.